Preview of NWS' New Version of Forecast
This preview is not operational and should not be used for support decisions.

Regional Weather Roundup (RWR)

Issued by Gray - Portland, ME (GYX)

                            
000
ASUS41 KGYX 210910
RWRGYX
WEATHER ROUNDUP FOR MAINE AND NEW HAMPSHIRE
NATIONAL WEATHER SERVICE GRAY ME
400 AM EST MON JAN 21 2019

MEZ002-005-006-010-012-015-018-020-021-024-026-027-029-211000-
MAINE
  
CITY           SKY/WX    TMP DP  RH WIND       PRES   REMARKS
PORTLAND       CLOUDY     8  -6  52 NW15G23   29.51R WCI  -9          
SANFORD        FLURRIES   2  -7  66 W12       29.52R WCI -15          
BAR HARBOR     FLURRIES  13   8  81 NW10      29.37R WCI   0          
WISCASSET      CLOUDY     6  -6  57 VRB7      29.49R                  
ROCKLAND       CLOUDY    13   3  64 NW12      29.42R WCI  -1          
FRYEBURG       CLOUDY     4  -7  60 S3        29.50R                  
LEWISTONAUBURN FLURRIES   3  -8  60 NW14      29.49R WCI -15          
AUGUSTA        CLOUDY     4  -7  60 NW13G18   29.45R WCI -13          
WATERVILLE     CLOUDY     8  -3  61 MISG      29.42R                  
BANGOR         CLOUDY    13   3  64 NW14G23   29.39R WCI  -2          
GREENVILLE       N/A      2  -6  69 NW17G32   29.31R WCI -18          
MILLINOCKET    CLOUDY    10   2  69 W9G18     29.38R                  
HOULTON        LGT SNOW  10   6  84 N14G24    29.30S VSB 3/4 WCI  -6  
PRESQUE ISLE   LGT SNOW  10   5  80 NW9G33    29.35S                  
FRENCHVILLE    LGT SNOW   7   0  73 NW22G30   29.32F WCI -14          
CARIBOU        CLOUDY    11   5  77 NW14      29.33R HAZE    WCI  -5  
$$

NHZ002-005-008-009-011-012-014-211000-
NEW HAMPSHIRE
  
CITY           SKY/WX    TMP DP  RH WIND       PRES   REMARKS
PORTSMOUTH     CLOUDY     2 -11  53 W20       29.53R WCI -19          
ROCHESTER      CLOUDY     2 -10  57 W9        29.52R                  
NASHUA         FAIR       2  -9  60 NW14G21   29.61R WCI -16          
MANCHESTER     FAIR       2 -11  54 NW16G24   29.58R WCI -18          
CONCORD        MOCLDY    -1 -12  59 NW21G26   29.60R WCI -24          
LACONIA        CLOUDY    -2 -12  62 W12G18    29.55R WCI -20          
PLYMOUTH       FAIR      -3 -13  63 W17G24    29.61R WCI -25          
BERLIN         LGT SNOW  -5 -13  68 VRB6      29.57R                  
WHITEFIELD     CLOUDY    -5 -11  75 CALM      29.62R HAZE             
JAFFREY        FAIR      -2 -11  65 W9G21     29.54S                  
KEENE          CLOUDY     0 -12  57 NW12      29.67R WCI -17          
LEBANON        CLOUDY    -2 -15  54 N13G21    29.68R WCI -20          
MT WASHINGTON  FOG      -15 -17  91 NW22G31     N/A  VSB 1/8 WCI -42  
$$

VTZ005-007-008-211000-
VERMONT
  
CITY           SKY/WX    TMP DP  RH WIND       PRES   REMARKS
ST JOHNSBURY     N/A     -4 -10  75 MISG      29.66S                  
MONTPELIER     CLOUDY    -8 -12  83 NW12      29.69R FOG     WCI -27  
BURLINGTON     LGT SNOW  -4 -11  72 NW12      29.83R WCI -22          
$$

MAZ007-012-024-CTZ003-RIZ002-NYZ038-NYZ072-211000-
SOUTHERN NEW ENGLAND AND NY
  
CITY           SKY/WX    TMP DP  RH WIND       PRES   REMARKS
BOSTON         FAIR       7  -8  50 W20G33    29.61R WCI -13          
WORCESTER      FAIR      -2 -13  59 W21G31    29.55R WCI -25          
NANTUCKET      MOCLDY    12   3  67 NW21G30   29.59R WCI  -7          
PROVIDENCE     FAIR       4  -5  66 W15       29.67R WCI -14          
HARTFORD       FAIR      -1 -13  56 NW16G29   29.76R WCI -21          
ALBANY         LGT SNOW  -3 -13  62 NW14      29.90R WCI -22          
NEW YORK CITY  FAIR      10  -1  61 W25G35    29.87R WCI -11          
$$

ANZ081-ANZ082-ANZ150-NHZ014-MEZ023>029-211000-
COASTAL MARINE OBSERVATIONS
  
STATION/POSITION TIME  TEMP    WIND        PRES    WAVE
                       AIR SEA DIR/SP/G            HT/PER
                 (UTC) (F)     (DEG/KT/KT) (MB)    (FT/S)
MOUNT DESERT ROC 0900   17     310/ 29/ 33  993.7R
MATINICUS ROCK   0800   16     310/ 20/ 25  995.3R
ISLE OF SHOALS   0800    5     300/ 22/ 25  999.5R
CASHES LEDGE BUO 0850   17 40               996.4R  10/13
$$

.............KEY..............
   WCI - WIND CHILL
   TC  - TEMPERATURE IN CELSIUS
   VSB - VISIBILITY IN MILES
   HX  - HEAT INDEX
   FAIR- INDICATES FEW OR NO CLOUDS BELOW 12,000 FT, WITH NO 
         SIGNIFICANT WEATHER AND/OR OBSTRUCTIONS TO VISIBILITY.